Location: Clichy
(48.9102°N, 2.5532°E)
Time: 09:56:10
(UTC+00:00)

Daily predictions for brighter satellites

Satellite Brightness Start Highest point End
(mag) Time Altitude Azimuth Time Altitude Azimuth Time Altitude Azimuth
Cosmos 1386 Rocket 4.5 18:36:51 10° N 18:42:53 62° ENE 18:48:50 10° SSE
Cosmos 1455 Rocket 3.6 18:41:35 10° SSE 18:45:34 37° E 18:49:35 10° NNE
Cosmos 1110 Rocket 4.0 18:41:27 10° NNW 18:46:45 71° ENE 18:51:57 10° SSE
STARLINK-1225 4.4 18:43:25 10° SSW 18:47:01 31° SE 18:50:36 10° ENE
Cosmos 332 Rocket 4.0 18:43:03 10° NNW 18:48:00 83° WSW 18:52:54 10° SSE
STARLINK-1144 4.2 18:44:35 10° WNW 18:48:38 50° N 18:52:41 10° E
STARLINK-1203 4.2 18:45:21 10° SSW 18:48:55 34° SE 18:52:31 10° ENE
STARLINK-1072 3.5 18:45:53 10° WNW 18:49:54 89° NNE 18:53:54 10° ESE
Cosmos 1892 Rocket 3.6 18:46:08 10° N 18:50:38 71° E 18:55:06 10° SSE
SL-16 R/B 2.9 18:46:41 10° SSE 18:51:33 31° ESE 18:56:27 10° NE
STARLINK-1230 4.3 18:47:58 10° SSW 18:51:37 34° SE 18:55:17 10° ENE
Cosmos 2333 Rocket 3.5 18:46:20 10° SW 18:51:48 46° NW 18:57:16 10° NNE
STARLINK-1103 4.2 18:49:34 10° WNW 18:53:37 51° N 18:57:40 10° E
STARLINK-1096 3.5 18:50:20 10° WNW 18:54:22 87° SSW 18:58:22 10° ESE
STARLINK-1234 2.9 18:51:52 10° SW 18:54:48 57° SSE 18:57:46 10° ENE
USA 186 2.4 18:51:42 10° SE 18:54:58 41° ENE 18:58:11 10° N
Cosmos 1626 2.7 18:51:40 10° N 18:55:08 36° ENE 18:58:33 10° SE
CSL-04 Rocket 4.4 18:50:18 10° S 18:55:31 57° WSW 19:00:45 10° NNW
Cosmos 1953 4.3 18:54:36 10° E 18:55:49 11° E 18:57:02 10° ENE
ARGOS Delta rocket 4.1 18:50:58 10° SSE 18:56:01 67° ENE 19:01:22 10° N
STARLINK-1243 4.2 18:52:35 10° SSW 18:56:17 36° SE 19:00:01 10° ENE
NOSS 2-1 (E) 3.3 18:54:19 10° SW 18:57:43 73° NW 19:01:33 10° NE
Okean 1-7 Rocket 3.5 18:54:08 10° N 18:58:33 73° E 19:02:55 10° SSE
STARLINK-1101 4.1 18:54:34 10° WNW 18:58:38 52° N 19:02:42 10° E
STARLINK-1079 3.6 18:54:49 10° WNW 18:58:50 83° SSW 19:02:49 10° ESE
STARLINK-1236 4.1 18:57:11 10° SSW 19:00:56 39° SE 19:04:43 10° ENE
ATLAS 2AS CENTAUR R/B 4.2 18:56:10 10° NW 19:02:59 30° NNE 19:09:24 10° ENE
STARLINK-1116 3.6 18:59:17 10° WNW 19:03:18 79° SSW 19:07:08 11° ESE
STARLINK-1102 4.1 18:59:33 10° WNW 19:03:38 53° NNE 19:07:32 11° E
SJ-11-01 4.3 19:01:09 10° SSE 19:05:51 88° W 19:10:36 10° NNW
H-2A R/B 2.1 19:01:36 10° SSE 19:06:53 72° ENE 19:12:04 10° N
STARLINK-1111 4.1 19:04:32 10° WNW 19:08:37 55° NNE 19:12:19 12° E
Aureole 2 Rocket 4.4 19:06:39 10° NNE 19:08:48 15° NE 19:10:31 12° E
STARLINK-1269 3.9 19:06:27 10° SW 19:10:18 44° SE 19:14:10 10° ENE
ERBS 3.2 19:08:58 10° WSW 19:12:15 50° NNW 19:15:35 10° NE
STARLINK-1094 3.7 19:08:16 10° WNW 19:12:16 71° SSW 19:15:46 13° SE
Cosmos 1745 Rocket 4.3 19:06:17 10° NNW 19:12:38 77° W 19:18:50 10° S
Cosmos 1544 Rocket 3.7 19:08:40 10° S 19:12:56 53° E 19:17:16 10° NNE
STARLINK-1073 4.0 19:09:31 10° WNW 19:13:37 56° NNE 19:17:06 14° E
Cosmos 2297 3.7 19:08:46 10° NNW 19:14:28 76° ENE 19:20:10 10° SSE
STARLINK-1200 3.8 19:11:05 10° SW 19:14:58 48° SE 19:18:53 10° ENE
CZ-2C R/B 4.4 19:11:05 10° NNE 19:15:26 34° E 19:19:42 10° SSE
USA 234 3.6 19:09:16 10° ENE 19:15:29 44° SE 19:21:41 10° SSW
NOSS 0 Rocket 4.4 19:09:25 10° SW 19:15:36 66° WNW 19:21:48 10° NNE
STARLINK-1117 3.7 19:12:47 10° WNW 19:16:47 67° SSW 19:20:06 14° SE
Meteor 2-5 Rocket 4.3 19:12:24 10° NNW 19:18:00 62° W 19:23:30 10° S
STARLINK-1121 4.0 19:14:32 10° WNW 19:18:37 58° NNE 19:21:53 15° E
STARLINK-1192 3.7 19:15:41 10° SW 19:19:37 51° SE 19:23:25 11° ENE
ADEOS Rocket 4.0 19:13:32 10° N 19:20:19 56° WNW 19:26:22 10° SW
STARLINK-1078 3.8 19:17:17 10° WNW 19:21:16 63° SSW 19:24:26 15° SE
Cosmos 1805 4.0 19:17:43 10° SSW 19:21:34 57° WNW 19:25:27 10° N
Cosmos 2237 Rocket 2.6 19:16:00 10° SW 19:21:35 69° WNW 19:27:15 10° NNE
STARLINK-1106 3.9 19:19:29 10° WNW 19:23:36 60° NNE 19:26:39 17° E
Cosmos 1302 Rocket 4.0 19:19:01 10° NNW 19:24:18 72° ENE 19:29:34 10° SSE
STARLINK-1244 3.7 19:20:26 10° SW 19:24:23 55° SSE 19:28:01 12° ENE
STARLINK-1201 2.9 19:21:29 10° WSW 19:24:43 76° SSE 19:27:30 14° ENE
STARLINK-1108 3.9 19:21:50 10° WNW 19:25:48 59° SSW 19:28:47 17° SE
Cosmos 2278 Rocket 4.1 19:21:31 10° NW 19:26:24 30° WSW 19:31:16 10° SSW
CZ-2C R/B 3.4 19:22:55 10° NE 19:27:24 28° E 19:31:49 10° SSE
STARLINK-1112 3.9 19:24:30 10° WNW 19:28:36 62° NNE 19:31:27 19° E
Cosmos 1269 Rocket 4.0 19:23:40 10° SSW 19:28:56 72° ESE 19:34:14 10° NNE
STARLINK-1138 3.6 19:25:05 10° SW 19:29:04 58° SSE 19:32:32 13° ENE
STARLINK-1209 2.7 19:27:10 10° WSW 19:30:04 77° NNW 19:32:14 16° ENE
STARLINK-1066 4.3 19:27:16 10° WNW 19:30:07 31° SW 19:32:18 15° SSE
STARLINK-1071 4.0 19:26:21 10° WNW 19:30:18 55° SSW 19:33:08 18° SE
STARLINK-1081 4.3 19:27:44 10° W 19:30:33 31° SW 19:32:41 15° SSE
STARLINK-1070 4.3 19:28:11 10° W 19:31:00 30° SW 19:33:06 15° SSE
STARLINK-1228 2.7 19:28:10 10° WSW 19:31:02 75° NNW 19:33:09 17° ENE
STARLINK-1124 4.1 19:27:15 10° WNW 19:31:18 55° SSW 19:34:14 18° SE
STARLINK-1069 4.3 19:28:36 10° W 19:31:26 31° SW 19:33:34 15° SSE
STARLINK-1085 4.4 19:29:03 10° W 19:31:53 30° SW 19:34:00 15° SSE
STARLINK-1086 4.4 19:29:33 10° W 19:32:21 30° SW 19:34:25 15° SSE
STARLINK-1095 4.4 19:30:01 10° W 19:32:47 30° SW 19:34:50 15° SSE
STARLINK-1077 4.4 19:30:27 10° W 19:33:13 29° SW 19:35:16 15° SSE
Meteor 1-24 Rocket 4.2 19:27:52 10° NNW 19:33:21 62° W 19:38:39 10° S
STARLINK-1128 3.8 19:29:29 10° WNW 19:33:37 65° NNE 19:36:15 21° E
STARLINK-1075 4.4 19:30:55 10° W 19:33:41 29° SW 19:35:42 15° SSE
STARLINK-1143 3.5 19:29:50 10° SW 19:33:50 62° SSE 19:37:08 15° ENE
STARLINK-1093 4.4 19:31:19 10° W 19:34:08 29° SW 19:36:10 15° SSE
STARLINK-1074 4.4 19:31:47 10° W 19:34:34 29° SW 19:36:36 15° SSE
SL-8 R/B 3.6 19:29:51 10° W 19:34:40 87° S 19:38:02 19° E
STARLINK-1110 4.1 19:30:53 10° WNW 19:34:48 52° SSW 19:37:29 19° SE
ARGOS 3.3 19:29:36 10° SSE 19:35:01 81° WSW 19:40:27 10° NNW
STARLINK-1087 4.4 19:32:16 10° W 19:35:02 28° SW 19:37:00 15° SSE
STARLINK-1088 4.5 19:32:44 10° W 19:35:29 28° SW 19:37:26 15° SSE
STARLINK-1115 4.5 19:33:09 10° W 19:35:56 28° SW 19:37:55 15° SSE
Cosmos 2251 Rocket 4.4 19:31:36 10° SSE 19:36:00 27° E 19:40:26 10° NE
STARLINK-1076 4.5 19:33:36 10° W 19:36:22 28° SW 19:38:20 15° SSE
STARLINK-1092 4.5 19:34:04 10° W 19:36:50 28° SW 19:38:47 15° SSE
SL-24 R/B 4.3 19:32:49 10° NNE 19:37:23 47° E 19:41:22 10° S
STARLINK-1113 3.7 19:34:28 10° WNW 19:38:36 68° NNE 19:41:02 24° E
Cosmos 1470 2.6 19:37:56 10° S 19:41:47 66° E 19:45:39 10° NNE
STARLINK-1119 3.7 19:39:26 10° WNW 19:43:35 71° NNE 19:45:48 26° E
STARLINK-1122 4.3 19:40:04 10° WNW 19:43:56 45° SW 19:46:17 21° SSE
STARLINK-1241 3.4 19:40:15 10° SW 19:44:15 72° SSE 19:47:06 18° ENE
STARLINK-1233 2.9 19:41:22 10° WSW 19:44:30 78° NNW 19:46:20 22° ENE
STARLINK-1212 2.9 19:41:49 10° WSW 19:44:56 78° NNW 19:46:46 23° ENE
STARLINK-1105 2.9 19:42:16 10° WSW 19:45:24 77° NNW 19:47:13 23° ENE
STARLINK-1206 2.9 19:42:45 10° WSW 19:45:52 77° NNW 19:47:38 23° ENE
Cosmos 2315 Rocket 4.0 19:39:44 10° S 19:46:03 82° E 19:52:27 10° N
SL-08 RB Rocket 3.7 19:41:38 10° SSE 19:46:09 83° WSW 19:50:45 10° NNW
STARLINK-1247 2.9 19:43:12 10° WSW 19:46:19 76° NNW 19:48:03 24° ENE
STARLINK-1227 3.0 19:43:36 10° WSW 19:46:44 76° NNW 19:48:30 24° ENE
ISS -3.5 19:43:26 10° WNW 19:46:47 63° NNE 19:48:11 31° E
ATLAS CENTAUR R/B 4.3 19:45:23 10° NW 19:46:53 12° NNW 19:48:22 10° N
STARLINK-1218 2.9 19:44:06 10° WSW 19:47:13 75° NNW 19:48:55 24° ENE
SJ-6B 3.3 19:43:15 10° S 19:47:17 64° WSW 19:51:24 10° NNW
STARLINK-1226 3.0 19:44:34 10° WSW 19:47:41 75° NNW 19:49:23 24° ENE
MetOp-A 4.1 19:42:28 10° SSE 19:47:47 77° ENE 19:53:09 10° NNW
Resurs 1-3 3.6 19:44:43 17° SSE 19:48:03 68° ENE 19:52:26 10° N
STARLINK-1254 3.0 19:44:58 10° WSW 19:48:05 75° NNW 19:49:48 24° ENE
STARLINK-1126 4.4 19:44:43 10° WNW 19:48:33 42° SW 19:50:45 22° SSE
STARLINK-1215 3.0 19:45:28 10° WSW 19:48:34 74° NNW 19:50:14 25° ENE
STARLINK-1114 3.6 19:44:26 10° WNW 19:48:36 74° NNE 19:50:36 29° E
STARLINK-1239 3.4 19:44:49 10° WSW 19:48:50 76° SSE 19:51:30 20° ENE
STARLINK-1231 3.0 19:45:54 10° WSW 19:49:01 74° NNW 19:50:39 25° ENE
Cosmos 1758 3.2 19:45:36 10° S 19:49:41 74° E 19:53:47 10° NNE
STARLINK-1232 3.0 19:46:49 10° WSW 19:49:55 73° NNW 19:51:31 26° ENE
STARLINK-1217 3.0 19:47:16 10° WSW 19:50:22 72° NNW 19:51:58 26° ENE
STARLINK-1208 3.0 19:47:41 10° WSW 19:50:48 72° NNW 19:52:25 26° ENE
STARLINK-1229 3.0 19:48:10 10° WSW 19:51:16 72° NNW 19:52:48 27° ENE
BREEZE-M DEB (TANK) 3.6 19:44:21 10° W 19:51:42 86° N 19:53:10 32° E
STARLINK-1271 3.0 19:48:37 10° WSW 19:51:44 71° NNW 19:53:16 27° ENE
IRIDIUM 104 4.3 19:46:52 10° N 19:52:05 63° E 19:56:26 15° SSE
STARLINK-1270 3.0 19:49:05 10° WSW 19:52:11 71° NNW 19:53:42 27° ENE
STARLINK-1154 3.0 19:49:31 10° WSW 19:52:38 70° NNW 19:54:07 27° ENE
STARLINK-1082 4.5 19:49:18 10° WNW 19:53:05 39° SW 19:55:08 23° SSE
STARLINK-1240 3.4 19:49:25 10° WSW 19:53:26 80° SSE 19:55:56 22° ENE
STARLINK-1197 3.1 19:50:25 10° WSW 19:53:31 70° NNW 19:54:59 28° ENE
STARLINK-1130 (DARKSAT) 3.6 19:49:24 10° WNW 19:53:34 77° NNE 19:55:22 32° ESE
CZ-2C R/B 3.7 19:48:49 10° S 19:53:45 52° W 19:58:31 10° NNW
STARLINK-1189 3.1 19:50:52 10° WSW 19:53:59 69° NNW 19:55:26 28° ENE
STARLINK-1187 3.2 19:51:44 10° WSW 19:54:51 64° NNW 19:56:20 27° NE
Cosmos 2369 Rocket 2.4 19:49:14 10° NNW 19:54:51 54° NE 19:57:49 27° ESE
STARLINK-1188 3.1 19:51:47 10° WSW 19:54:53 68° NNW 19:56:17 29° NE
STARLINK-1198 3.1 19:52:00 10° WSW 19:55:07 68° NNW 19:56:31 29° NE
Resurs 01 Rocket 1.7 19:53:05 26° SE 19:55:25 57° ENE 19:59:46 10° N
STARLINK-1235 3.3 19:52:27 10° W 19:55:34 59° NNW 19:57:05 26° NE
Abrixas rocket 4.5 19:53:54 10° SSW 19:54:14 12° S 19:54:14 12° S
STARLINK-1199 3.1 19:53:42 10° WSW 19:56:50 67° NNW 19:58:12 30° NE
STARLINK-1191 3.1 19:54:11 10° WSW 19:57:18 67° NNW 19:58:39 30° NE
STARLINK-67 3.5 19:54:50 10° W 19:57:19 41° NNW 19:58:04 31° NNE
STARLINK-1210 3.1 19:54:37 10° WSW 19:57:44 66° NNW 19:59:04 31° NE
STARLINK-1216 3.4 19:54:02 10° WSW 19:58:03 85° SSE 20:00:23 24° ENE
STARLINK-1221 3.2 19:55:05 10° WSW 19:58:13 66° NNW 19:59:32 31° NE
STARLINK-1084 3.6 19:54:22 10° WNW 19:58:33 81° NNE 20:00:09 36° ESE
STARLINK-1219 3.2 19:55:32 10° WSW 19:58:40 65° NNW 19:59:57 31° NE
STARLINK-1222 3.2 19:55:58 10° WSW 19:59:06 65° NNW 20:00:23 31° NE
STARLINK-1211 3.2 19:56:26 10° WSW 19:59:33 65° NNW 20:00:48 32° NE
STARLINK-1214 3.2 19:56:54 10° WSW 20:00:01 64° NNW 20:01:15 32° NE
STARLINK-1245 3.2 19:57:23 10° WSW 20:00:29 64° NNW 20:01:40 33° NE
STARLINK-1238 3.2 19:57:48 10° WSW 20:00:55 64° NNW 20:02:07 33° NE
IRIDIUM 114 4.2 19:56:01 10° N 20:01:16 75° E 20:05:35 15° S
STARLINK-1205 3.2 19:58:45 10° WSW 20:01:51 63° NNW 20:02:58 34° NE
Meteor 2-15 Rocket 4.3 19:56:00 10° S 20:02:04 78° E 20:08:10 10° NNE
STARLINK-1204 3.2 19:59:11 10° WSW 20:02:16 62° NNW 20:03:23 34° NE
STARLINK-1237 3.4 19:58:41 10° WSW 20:02:43 89° SSE 20:04:52 27° ENE
STARLINK-1098 3.5 19:59:21 10° WNW 20:03:30 85° NNE 20:04:55 40° ESE
SPOT 3 Rocket 3.8 20:00:48 10° S 20:06:00 70° WSW 20:11:14 10° NNW
Cosmos 1726 2.6 20:06:29 40° E 20:06:29 40° E 20:09:47 10° NNE
STARLINK-1202 3.5 20:03:18 10° WSW 20:07:21 87° NNW 20:09:18 29° ENE
Meteor 1-21 Rocket 4.1 20:02:01 10° N 20:07:38 84° ENE 20:11:31 20° SSE
STARLINK-1123 3.5 20:04:21 10° WNW 20:08:30 89° N 20:09:44 45° ESE
Nadezhda 1 Rocket 4.5 20:06:17 26° SE 20:09:13 41° E 20:15:08 10° NNE
IRIDIUM 103 4.3 20:05:11 10° N 20:10:27 89° E 20:14:45 16° S
Cosmos 2228 3.8 20:11:03 32° ENE 20:11:03 32° ENE 20:14:23 10° NNE
CZ-4C R/B 4.5 20:07:04 10° WNW 20:11:44 23° N 20:17:05 10° NE
STARLINK-1246 3.5 20:08:24 10° WSW 20:12:29 83° NNW 20:14:18 32° ENE
MOS 1 Rocket 3.5 20:07:22 10° NNE 20:12:34 70° ESE 20:17:56 10° S
STARLINK-1097 3.5 20:09:18 10° WNW 20:13:28 87° SSW 20:14:29 50° ESE
Cosmos 292 Rocket 3.7 20:12:26 10° NNW 20:17:15 86° ENE 20:19:07 38° SSE
STARLINK-1099 3.5 20:14:18 10° WNW 20:18:27 82° SSW 20:19:17 56° SE
Cosmos 1943 3.8 20:19:28 34° E 20:19:28 34° E 20:24:02 10° NE
Cosmos 1943 Rocket 2.1 20:14:36 10° NNW 20:20:09 82° WSW 20:22:51 32° SSE
STARLINK-1224 3.6 20:17:17 10° WSW 20:21:19 76° NNW 20:22:45 39° ENE
NOSS 3-4 (A) 4.4 20:15:59 10° NW 20:22:27 44° NE 20:25:57 27° E
NOSS 3-4 (C) 4.4 20:16:05 10° NW 20:22:33 44° NE 20:26:03 27° E
Cosmos 2074 Rocket 3.9 20:16:28 10° N 20:22:46 85° E 20:26:46 24° S
STARLINK-1104 3.5 20:19:18 10° WNW 20:23:27 78° SSW 20:24:04 61° SE
STARLINK-1225 3.7 20:22:00 10° WSW 20:26:02 73° NNW 20:27:17 42° NE
Cosmos 1328 4.0 20:22:58 10° N 20:26:45 52° ENE 20:26:45 52° ENE
STARLINK-1203 3.7 20:23:42 10° WSW 20:27:38 68° NNW 20:28:44 44° NE
STARLINK-1144 3.5 20:24:15 10° WNW 20:28:24 73° SSW 20:28:50 65° SSE
Cosmos 1437 3.5 20:26:20 10° N 20:28:32 43° N 20:28:32 43° N
STARLINK-1234 3.9 20:27:12 10° W 20:29:58 41° NNW 20:29:58 41° NNW
STARLINK-1230 3.7 20:26:40 10° WSW 20:30:41 70° NNW 20:31:45 46° NE
Cosmos 1953 2.5 20:29:29 26° SSW 20:31:37 71° WNW 20:35:35 10° N
Meteor 2-10 4.0 20:28:33 20° S 20:32:17 79° E 20:37:52 10° NNE
SPOT 1/Viking Rocket 3.8 20:32:06 44° E 20:32:54 48° ENE 20:37:55 10° N
NOSS 3-3 (A) 4.0 20:27:23 10° SSW 20:33:01 50° ESE 20:39:19 10° NE
NOSS 3-3 (C) 4.0 20:27:30 10° SSW 20:33:07 50° ESE 20:39:25 10° NE
STARLINK-1103 3.6 20:29:14 10° WNW 20:33:21 69° SSW 20:33:37 67° S
Spot 2 Rocket 3.4 20:33:06 49° SE 20:34:28 73° ENE 20:39:35 10° N
Cosmos 2084 Rocket 3.7 20:30:06 10° NW 20:34:33 68° SW 20:35:19 55° S
STARLINK-1243 3.8 20:31:23 10° WSW 20:35:24 67° NNW 20:36:16 50° NE
SL-16 R/B 3.1 20:29:57 10° SW 20:35:27 51° NW 20:40:59 10° NNE
Cosmos 1610 Rocket 4.4 20:30:33 10° N 20:36:48 73° ENE 20:39:03 41° SSE
STARLINK-1101 3.7 20:34:14 10° WNW 20:38:21 65° SSW 20:38:25 65° SSW
STARLINK-1236 3.8 20:36:04 10° W 20:40:05 64° NNW 20:40:45 53° NNE
IGS 5A 3.7 20:42:14 54° NE 20:42:14 54° NE 20:45:57 10° N
Aureole 3 4.5 20:38:26 10° SSW 20:42:18 50° WNW 20:47:20 10° N
Aureole 2 Rocket 3.1 20:39:29 10° NNW 20:42:44 52° W 20:42:44 52° W
STARLINK-1102 3.8 20:39:13 10° WNW 20:43:11 60° SW 20:43:11 60° SW
STARLINK-1111 4.0 20:44:12 10° WNW 20:47:58 55° SW 20:47:58 55° SW
Terra 2.9 20:49:37 31° NE 20:49:37 31° NE 20:53:17 10° N
ERBS 4.5 20:46:29 10° WNW 20:49:10 21° N 20:49:56 20° NNE
STARLINK-1269 3.9 20:45:32 10° W 20:49:32 60° NNW 20:49:49 58° N
CARTOSAT-1 4.4 20:50:52 37° NE 20:50:52 37° NE 20:54:09 10° N
Cosmos 2341 Rocket 4.1 20:46:42 10° N 20:52:56 55° ENE 20:53:51 51° ESE
STARLINK-1073 4.2 20:49:12 10° WNW 20:52:45 49° WSW 20:52:45 49° WSW
Cosmos 1703 3.5 20:49:35 10° NNW 20:53:09 68° NW 20:53:09 68° NW
STARLINK-1200 4.0 20:50:15 10° W 20:54:15 58° NNW 20:54:21 58° N
Cosmos 1726 Rocket 3.7 20:55:08 64° NNE 20:55:08 64° NNE 20:58:57 10° NNE
ATLAS 2AS CENTAUR R/B 3.0 20:47:48 10° NW 20:55:30 63° NE 20:57:41 45° E
Cosmos 1603 3.5 20:53:25 24° SSW 20:56:57 80° ESE 21:02:35 10° NNE
Meteor 1-16 Rocket 4.2 20:54:16 30° SSW 20:56:59 77° WNW 21:02:29 10° N
Cosmos 1825 Rocket 4.2 20:52:43 10° NNW 20:57:03 53° W 20:57:49 47° SW
STARLINK-1121 4.4 20:54:12 10° WNW 20:57:32 44° WSW 20:57:32 44° WSW
USA 234 3.4 20:52:15 10° NE 20:58:47 74° NNW 21:05:18 10° WSW
STARLINK-1192 4.1 20:54:56 10° W 20:58:49 56° NNW 20:58:49 56° NNW
MetOp-B 4.5 21:01:15 42° SSW 21:02:50 60° WSW 21:08:10 10° NNW
STARLINK-1244 4.2 20:59:45 10° W 21:03:26 53° NNW 21:03:26 53° NNW
CZ-2C R/B 3.6 21:02:57 10° N 21:07:53 45° WNW 21:12:46 10° SW
Aureole 1 Rocket 4.4 21:07:15 54° SE 21:08:11 57° ESE 21:14:41 10° NNE
STARLINK-1138 4.4 21:04:29 10° W 21:07:58 49° NW 21:07:58 49° NW
COSMOS 2455 3.5 21:04:44 10° NNW 21:10:25 41° NE 21:11:09 39° ENE
Meteor 1-11 4.3 21:05:20 10° NNW 21:11:10 78° W 21:12:06 62° SSW
Cosmos 1953 Rocket 4.1 21:08:21 10° NNW 21:12:42 54° W 21:12:42 54° W
Cosmos 1295 Rocket 4.5 21:09:16 10° N 21:15:33 82° W 21:16:48 60° S
Cosmos 1461 4.3 21:11:41 10° NNW 21:15:09 33° NNE 21:15:09 33° NNE
SL-8 R/B 4.4 21:12:24 10° W 21:16:00 46° WSW 21:16:00 46° WSW
Cosmos 2251 Rocket 4.3 21:12:45 10° SW 21:17:59 52° WNW 21:23:15 10° NNE
Cosmos 1606 Rocket 4.4 21:20:19 45° W 21:20:43 46° WNW 21:25:01 10° N
Cosmos 2218 Rocket 4.2 21:15:36 10° N 21:21:25 55° ENE 21:21:25 55° ENE
Cosmos 1656 Rocket 3.7 21:16:45 10° NNW 21:22:26 73° WSW 21:22:37 72° SW
ISS -0.9 21:20:21 10° WNW 21:21:09 16° W 21:21:09 16° W
ERS-1 Rocket 3.1 21:28:47 70° NW 21:28:47 70° NW 21:33:24 10° NNW
Resurs 01 Rocket 4.0 21:30:38 15° WSW 21:32:17 17° W 21:35:15 10° NW
Cosmos 2181 Rocket 4.1 21:33:10 61° ENE 21:33:10 61° ENE 21:38:39 10° NNE
SPOT 5 3.6 21:35:18 46° NNW 21:35:18 46° NNW 21:38:25 10° NNW
Cosmos 2369 Rocket 3.6 21:33:46 10° NW 21:38:34 29° WSW 21:39:38 27° WSW
SL-8 Rocket 4.0 21:50:29 10° NNW 21:56:35 74° W 21:56:35 74° W
CZ-4C R/B 4.3 21:56:58 10° NW 22:02:28 28° NNE 22:06:33 17° ENE
Cosmos 1943 4.1 22:01:07 35° W 22:02:53 46° NW 22:08:22 10° NNE
Cosmos 1943 Rocket 4.5 22:00:22 10° WNW 22:03:00 14° W 22:04:25 12° WSW
Cosmos 2366 rocket 4.1 21:57:49 10° N 22:03:19 71° NNW 22:03:19 71° NNW
Mayak 1.4 22:06:12 10° NNE 22:06:55 15° NNE 22:06:55 15° NNE
NOSS 3-4 (A) 4.0 22:06:52 10° NW 22:13:24 63° WSW 22:13:24 63° WSW
NOSS 3-4 (C) 4.0 22:06:58 10° NW 22:13:29 63° WSW 22:13:29 63° WSW
Terra 3.6 22:28:29 27° NW 22:28:29 27° NW 22:31:09 10° NNW
Cosmos 1697 Rocket 4.2 22:21:56 10° NNW 22:26:03 30° NNE 22:26:03 30° NNE
USA 234 4.1 22:35:12 10° ENE 22:41:22 46° N 22:47:32 10° WNW
ATLAS 2AS CENTAUR R/B 3.7 22:39:19 10° NW 22:45:07 37° W 22:45:07 37° W
Cosmos 1980 Rocket 3.9 22:47:03 10° NNW 22:50:54 27° NNE 22:50:54 27° NNE
COSMOS 2455 4.1 22:50:44 10° NW 22:54:18 34° WNW 22:54:18 34° WNW
ATLAS 5 CENTAUR R/B 4.3 23:39:11 16° NNE 23:39:11 16° NNE 23:40:22 10° NE
Mayak 1.9 23:43:10 10° NNW 23:43:29 11° NNW 23:43:29 11° NNW
